Regional Weather Roundup
Issued by NWS

Home | Current Version | Previous Version | Graphics & Text | Print | Product List | Glossary On
Versions: 1 2 3 4 5 6 7 8 9 10 11 12 13 14 15 16 17 18 19 20 21 22 23 24 25 26 27 28 29 30 31 32 33 34 35 36 37 38 39 40 41 42 43 44 45 46 47 48 49 50
000
ASUS43 KOAX 032302
RWRNE

WEATHER ROUNDUP FOR NEBRASKA
NATIONAL WEATHER SERVICE OMAHA NE
500 PM CST TUE MAR 03 2015

NOTES: SATELLITE DATA IS BEING USED TO AUGMENT CLOUD COVER ABOVE
       12000 FEET.
       "FAIR" INDICATES FEW OR NO CLOUDS BELOW 12,000 FEET WITH NO
       SIGNIFICANT WEATHER AND/OR OBSTRUCTIONS TO VISIBILITY.

  * THESE STATIONS DO NOT REPORT WEATHER SUCH AS RAIN...SNOW OR FOG.

NEZ001>004-019>022-054>056-040000-
NEBRASKA PANHANDLE

CITY           SKY/WX    TMP DP  RH WIND       PRES   REMARKS
SCOTTSBLUFF    CLOUDY    20   7  57 NW10      29.93R WCI   9
ALLIANCE       FLURRIES  19  10  68 NW10      29.91R WCI   7
CHADRON        LGT SNOW  17  10  74 E3        29.96F
KIMBALL        LGT SNOW  18  11  76 N5        29.84R WCI  11
SIDNEY         CLOUDY    22   8  55 N9        29.88S WCI  12
$$

NEZ057>060-069>072-079>082-040000-
SOUTHWEST NEBRASKA

CITY           SKY/WX    TMP DP  RH WIND       PRES   REMARKS
NORTH PLATTE   SUNNY     27   6  41 N18G25    29.94R WCI  14
IMPERIAL         N/A     29   8  41 N15       29.91F WCI  18
LEXINGTON      SUNNY     31   2  29 N20       29.94R WCI  19
MCCOOK         SUNNY     34  10  37 N14       29.93R WCI  25
$$

NEZ005>010-023>029-035>040-094-040000-
NORTH CENTRAL NEBRASKA

CITY           SKY/WX    TMP DP  RH WIND       PRES   REMARKS
VALENTINE      CLOUDY    19   4  51 N16       30.00S WCI   4
AINSWORTH      CLOUDY    19   6  55 N16G22    29.99F WCI   5
BROKEN BOW     SUNNY     28   5  37 NW18G28   29.95R WCI  15
ORD            SUNNY     26  -1  31 N20       29.97R WCI  12
$$

NEZ041-046>049-061>064-073>077-083>087-040000-
SOUTH CENTRAL NEBRASKA

CITY           SKY/WX    TMP DP  RH WIND       PRES   REMARKS
GRAND ISLAND   PTSUNNY   29   2  31 N22G28    29.96R WCI  15
AURORA         PTSUNNY   30   4  33 N20G25    29.96R WCI  17
HASTINGS       PTSUNNY   30   7  37 N17       29.94R WCI  18
HEBRON         PTSUNNY   33  13  43 N17G25    29.94R WCI  22
HOLDREGE       PTSUNNY   32   7  35 N16G23    29.93R WCI  21
KEARNEY *      PTSUNNY   30   7  37 N17G23    29.95R WCI  18
$$

NEZ011>018-030>034-042>045-040000-
NORTHEAST NEBRASKA

CITY           SKY/WX    TMP DP  RH WIND       PRES   REMARKS
NORFOLK        SUNNY     25   6  44 N23       29.96R WCI  10
ALBION         SUNNY     27   3  35 N20       29.96S WCI  13
BLAIR          PTSUNNY   30  13  49 N22G30    29.91S WCI  17
COLUMBUS *     MOSUNNY   28   1  31 N22       29.97S WCI  15
FREMONT        MOSUNNY   30   6  35 NW23G31   29.96R WCI  17
TEKAMAH        MOSUNNY   30  10  43 NW24      29.96R WCI  16
$$

NEZ050>053-065>068-078-088>093-040000-
SOUTHEAST NEBRASKA

CITY           SKY/WX    TMP DP  RH WIND       PRES   REMARKS
LINCOLN        PTSUNNY   32  11  41 N21       29.96R WCI  20
OMAHA EPPLEY   PTSUNNY   30  15  53 N21G31    29.93R WCI  17
BEATRICE       CLOUDY    33  18  53 N17       29.93S WCI  22
FALLS CITY     PTSUNNY   35  21  56 N15G24    29.91R WCI  25
NEBRASKA CITY  CLOUDY    32  15  50 N16G22    29.92R WCI  21
$$

NEZ044-045-051>053-067-040000-
OMAHA AREA

CITY           SKY/WX    TMP DP  RH WIND       PRES   REMARKS
OMAHA EPPLEY   PTSUNNY   30  15  53 N21G31    29.93R WCI  17
BLAIR          PTSUNNY   30  13  49 N22G30    29.91S WCI  17
FREMONT        MOSUNNY   30   6  35 NW23G31   29.96R WCI  17
OFFUTT AFB     PTSUNNY   31  17  54 N14G26    29.93R WCI  21
WAHOO          FAIR      30   5  34 N22G31    29.94S WCI  17
$$



USA.gov is the U.S. government's official web portal to all federal, state and local government web resources and services.